Overview Statistics Trail Chart Weather Telemetry Raw packets
 

This is the latest recevied weather packets stored in our database for station/object K0QED. If no packets are shown the sender has not sent any weather packets the latest 10 day(s).

<< 35 36 37 38 39 40 41 >>
Time Temp. Humidity Pressure Rain* Wind** Luminosity Snow
1788383960 28.89° C 28% 1023 hPa 0 mm - 596 W/m² -
1788383656 28.33° C 27% 1023 hPa 0 mm - 610 W/m² -
1788383351 27.78° C 27% 1023.7 hPa 0 mm - 602 W/m² -
1788383050 27.78° C 27% 1023.5 hPa 0 mm - 563 W/m² -
1788382749 28.89° C 28% 1023.6 hPa 0 mm - 557 W/m² -
1788382444 28.33° C 27% 1023.6 hPa 0 mm - 573 W/m² -
1788382140 28.33° C 27% 1023.7 hPa 0 mm - 571 W/m² -
1788381839 28.89° C 26% 1023.9 hPa 0 mm - 594 W/m² -
1788381535 28.33° C 28% 1024 hPa 0 mm - 638 W/m² -
1788381230 28.89° C 27% 1023.9 hPa 0 mm - 637 W/m² -
1788380924 28.33° C 27% 1024.1 hPa 0 mm - 661 W/m² -
1788380620 27.78° C 27% 1024.2 hPa 0 mm - 666 W/m² -
1788380317 28.33° C 27% 1024.2 hPa 0 mm - 684 W/m² -
1788380016 27.78° C 29% 1024.2 hPa 0 mm - 663 W/m² -
1788379711 26.67° C 29% 1024.2 hPa 0 mm - 638 W/m² -
1788379406 27.22° C 28% 1024.4 hPa 0 mm - 635 W/m² -
1788379102 27.78° C 28% 1024.7 hPa 0 mm - 678 W/m² -
1788378801 27.22° C 27% 1024.5 hPa 0 mm - 698 W/m² -
1788378496 26.67° C 29% 1024.5 hPa 0 mm - 154 W/m² -
1788378191 27.78° C 28% 1024.7 hPa 0 mm - 714 W/m² -
1788377886 28.33° C 27% 1024.7 hPa 0 mm - 703 W/m² -
1788377582 26.67° C 29% 1024.6 hPa 0 mm - 665 W/m² -
1788377281 26.67° C 28% 1024.4 hPa 0 mm - 661 W/m² -
1788376979 26.67° C 29% 1024.9 hPa 0 mm - 658 W/m² -
1788376679 27.78° C 28% 1024.6 hPa 0 mm - 684 W/m² -

* Rain latest hour (hover to see other rain measurements)
** Current wind speed in m/s (hover to see current wind gust speed)